User: anonymous   Login
Location: Unspecified
(0.0000°N, 0.0000°E)
Time: 02:45:41
(UTC+02:00)
Language:

SeaSat 1 - Orbit

View from above orbital plane
View from above orbital plane
View from above satellite
View from above satellite

Ground track
Ground track

The orbit data is extracted from the following two-line orbital elements,

1 10967U 78064A   17295.62134278 -.00000010 +00000-0 +37518-4 0  9995
2 10967 108.0075 205.7659 0002557 300.0631 060.0260 14.43670852064769
Epoch (UTC): 22 October 2017 14:54:44
Eccentricity: 0.0002557
inclination: 108.0075°
perigee height: 744 km
apogee height: 748 km
right ascension of ascending node: 205.7659°
argument of perigee: 300.0631°
revolutions per day: 14.43670852
mean anomaly at epoch: 60.0260°
orbit number at epoch: 6476

The dashed part of the orbit path shows where the satellite is in the earth's shadow,  

DLR